User: anonymous   Login
Location: Unspecified
(0.0000°N, 0.0000°E)
Time: 13:09:04
(UTC+02:00)
Language:

Cosmos 1538 Rocket - Orbit

View from above orbital plane
View from above orbital plane
View from above satellite
View from above satellite

Ground track
Ground track

The orbit data is extracted from the following two-line orbital elements,

1 14760U 84019B   17290.85020988  .00000017  00000-0  14839-4 0  9996
2 14760  74.0422 256.8258 0026588  86.2636 274.1556 14.35834260761184
Epoch (UTC): 17 October 2017 20:24:18
Eccentricity: 0.0026588
inclination: 74.0422°
perigee height: 753 km
apogee height: 791 km
right ascension of ascending node: 256.8258°
argument of perigee: 86.2636°
revolutions per day: 14.35834260
mean anomaly at epoch: 274.1556°
orbit number at epoch: 76118

The dashed part of the orbit path shows where the satellite is in the earth's shadow,  

DLR